Tracking 30685 objects as of 18-Jun-2025
HD Live streaming from Space Station
objects crossing your sky now

STARLINK-5332

Track STARLINK-5332 now!
10-day predictions
STARLINK-5332 is classified as:


NORAD ID: 55285
Int'l Code: 2023-010S
Perigee: 577.2 km
Apogee: 581.2 km
Inclination: 70.0 °
Period: 96.1 minutes
Semi major axis: 6950 km
RCS: Unknown
Launch date: January 19, 2023
Source: United States (US)
Launch site: AIR FORCE WESTERN TEST RANGE (AFWTR)
Your satellite tracking list
Your tracking list is empty




NASA's NSSDC Master Catalog

Two Line Element Set (TLE):
1 55285U 23010S   25168.65073019  .00000276  00000-0  30918-4 0  9994
2 55285  69.9990 312.6348 0002873 273.4547  86.6283 14.98329613134948
Source of the keplerian elements: AFSPC